Zurück zum Katalog

THORAD AGENA D DEB

AktivSSO
NORAD 4979·DEBRIS·🇺🇸 United States

Gestartet Apr 8, 1970 von Vandenberg Space Force Base

Loading…

Nächste Überflüge (nächste 24 Stunden)

TLE

AktuellSource: Space-Track

Epoche: Sep 14, 2026, 14:49 UTC

1 04979U 70025GZ  26257.61769130  .00000082  00000-0  17253-3 0  9999
2 04979 100.0330 142.9545 0011936 265.0002 124.5573 13.60014297794205

Verfolge THORAD AGENA D DEB in Echtzeit mit AllMySat

Download on the App Store